Temp
-18 -18 -18 -17 -17 -17 -17 -17 -17 -17 -18 -18 -18 -18 -18 -18 -18 -18 -18 -19 -19 -19 -19 -19 -19 -19 -19 -19 -19 -19 -19 -19 -19 -19 -19 -18 -18 -18 -17 -17 -17 -17 -16 -16
-18 -18 -18 -17 -17 -17 -18 -17 -17 -17 -18 -18 -18 -18 -18 -18 -18 -19 -19 -19 -19 -19 -19 -19 -19 -19 -19 -19 -19 -19 -19 -19 -19 -18 -18 -18 -18 -18 -18 -18 -17 -17 -17 -17
-18 -18 -18 -17 -18 -18 -18 -18 -18 -17 -18 -18 -18 -18 -18 -18 -18 -19 -19 -19 -19 -19 -19 -19 -19 -19 -19 -19 -19 -19 -19 -19 -19 -18 -18 -18 -18 -18 -18 -18 -18 -18 -18 -18
-18 -18 -18 -17 -18 -18 -18 -18 -18 -18 -18 -18 -18 -18 -19 -19 -19 -19 -19 -19 -19 -19 -19 -19 -19 -19 -19 -19 -19 -19 -19 -19 -19 -19 -19 -19 -18 -18 -18 -18 -18 -18 -18 -18
-18 -18 -18 -18 -18 -18 -18 -18 -18 -18 -18 -18 -18 -18 -19 -19 -19 -19 -19 -19 -20 -20 -19 -19 -19 -19 -19 -19 -19 -19 -19 -19 -19 -19 -19 -19 -19 -19 -18 -19 -19 -19 -19 -19
-18 -18 -18 -18 -18 -18 -18 -18 -18 -18 -18 -18 -18 -18 -18 -19 -19 -19 -19 -19 -20 -20 -20 -19 -19 -19 -19 -19 -20 -20 -20 -19 -19 -19 -19 -19 -19 -19 -19 -19 -19 -19 -19 -20
-18 -18 -18 -18 -18 -18 -18 -18 -18 -18 -18 -18 -18 -19 -19 -19 -19 -19 -19 -20 -20 -20 -20 -20 -20 -19 -20 -20 -20 -20 -20 -20 -20 -20 -20 -20 -20 -19 -19 -19 -20 -20 -20 -20
-18 -18 -18 -18 -18 -18 -18 -18 -18 -18 -18 -18 -18 -19 -19 -19 -19 -19 -20 -20 -20 -20 -20 -20 -20 -20 -20 -20 -20 -20 -20 -20 -20 -20 -20 -20 -20 -20 -20 -20 -20 -21 -21 -22
-19 -18 -19 -18 -18 -18 -18 -18 -18 -18 -18 -18 -18 -19 -19 -19 -20 -20 -20 -20 -20 -20 -20 -20 -20 -20 -20 -20 -20 -20 -20 -20 -20 -20 -21 -21 -21 -21 -21 -21 -21 -22 -22 -24
-19 -19 -19 -18 -18 -18 -19 -18 -18 -18 -18 -19 -19 -19 -19 -20 -20 -20 -20 -20 -20 -20 -20 -20 -20 -20 -20 -20 -20 -20 -20 -21 -21 -21 -21 -21 -21 -21 -22 -22 -23 -23 -25 -27
-19 -19 -19 -19 -19 -19 -19 -19 -19 -19 -19 -19 -19 -19 -19 -20 -20 -20 -20 -20 -20 -20 -20 -20 -20 -20 -20 -20 -21 -21 -21 -21 -21 -21 -22 -22 -22 -23 -23 -24 -24 -24 -27 -27
-19 -20 -19 -19 -19 -19 -19 -19 -19 -19 -19 -19 -19 -19 -20 -20 -20 -20 -20 -21 -21 -20 -20 -21 -20 -21 -21 -21 -21 -21 -21 -21 -22 -22 -22 -22 -22 -23 -24 -25 -25 -27 -28 -27
-19 -20 -19 -19 -19 -19 -19 -19 -19 -19 -19 -19 -19 -19 -20 -20 -20 -20 -20 -21 -21 -21 -21 -21 -21 -21 -21 -21 -21 -21 -21 -22 -22 -22 -22 -22 -23 -23 -23 -25 -26 -28 -28 -27
-20 -20 -19 -19 -19 -19 -19 -19 -19 -19 -19 -19 -20 -20 -20 -20 -20 -20 -20 -20 -21 -21 -21 -21 -21 -21 -21 -21 -21 -21 -22 -22 -22 -22 -22 -23 -23 -24 -24 -24 -25 -27 -28 -27
-20 -20 -20 -20 -19 -19 -19 -19 -19 -19 -19 -20 -20 -20 -20 -20 -20 -21 -21 -21 -21 -21 -21 -21 -21 -21 -21 -21 -22 -22 -22 -22 -22 -23 -23 -24 -24 -24 -25 -25 -26 -27 -27 -27
-21 -20 -20 -20 -20 -20 -20 -20 -20 -20 -20 -20 -20 -20 -20 -20 -20 -21 -21 -21 -21 -21 -21 -21 -21 -21 -21 -22 -22 -22 -22 -22 -23 -23 -24 -24 -24 -24 -25 -25 -26 -27 -27 -26
-21 -21 -20 -21 -21 -20 -20 -20 -20 -20 -20 -20 -20 -20 -20 -20 -20 -20 -21 -21 -21 -21 -21 -21 -21 -21 -22 -22 -22 -22 -22 -23 -23 -24 -24 -24 -24 -25 -25 -26 -26 -27 -27 -26
-22 -22 -21 -21 -21 -21 -21 -20 -20 -20 -20 -20 -20 -20 -20 -20 -20 -21 -21 -21 -21 -21 -22 -22 -22 -22 -22 -22 -22 -22 -23 -23 -23 -24 -24 -25 -25 -25 -26 -26 -27 -27 -26 -26
-22 -22 -22 -21 -21 -21 -21 -21 -21 -21 -21 -21 -21 -21 -21 -20 -21 -21 -21 -21 -21 -22 -22 -22 -22 -22 -22 -22 -22 -23 -23 -23 -23 -24 -25 -25 -25 -26 -26 -26 -27 -27 -26 -26
-23 -23 -22 -22 -22 -22 -21 -21 -21 -21 -21 -21 -21 -21 -21 -21 -21 -21 -21 -21 -22 -22 -22 -22 -22 -22 -22 -22 -23 -23 -23 -23 -24 -24 -25 -25 -25 -26 -26 -26 -27 -27 -26 -26
-23 -23 -23 -23 -22 -22 -22 -22 -22 -22 -22 -22 -22 -21 -21 -21 -21 -21 -21 -22 -22 -22 -23 -23 -23 -23 -23 -23 -23 -23 -23 -24 -24 -25 -25 -25 -26 -26 -26 -27 -27 -27 -26 -26
-23 -23 -23 -23 -22 -22 -22 -23 -23 -23 -23 -22 -22 -22 -22 -22 -21 -22 -22 -22 -23 -23 -23 -23 -23 -23 -23 -23 -23 -24 -24 -24 -24 -25 -25 -25 -26 -26 -26 -27 -27 -27 -26 -26
-23 -23 -23 -23 -22 -22 -22 -23 -23 -23 -23 -23 -23 -23 -22 -22 -22 -22 -22 -23 -23 -23 -24 -23 -23 -23 -23 -23 -24 -24 -24 -24 -25 -25 -25 -26 -26 -26 -26 -27 -27 -27 -26 -26
-23 -23 -23 -23 -23 -22 -22 -23 -23 -23 -23 -23 -23 -23 -23 -23 -23 -23 -23 -23 -24 -24 -24 -24 -24 -24 -24 -24 -24 -24 -24 -25 -25 -26 -26 -26 -26 -27 -27 -27 -27 -27 -27 -27
-24 -23 -23 -23 -23 -23 -23 -23 -23 -23 -23 -23 -23 -23 -23 -23 -23 -23 -23 -24 -24 -24 -24 -24 -24 -24 -24 -24 -24 -24 -25 -25 -26 -26 -26 -26 -27 -27 -27 -27 -27 -27 -27 -27
-24 -24 -23 -23 -23 -23 -23 -23 -23 -23 -23 -23 -23 -23 -23 -23 -23 -24 -24 -24 -24 -24 -24 -24 -24 -24 -24 -25 -25 -25 -25 -25 -26 -26 -26 -27 -27 -27 -27 -27 -28 -27 -27 -27
-24 -24 -24 -23 -23 -23 -23 -23 -23 -23 -24 -23 -23 -24 -24 -24 -24 -24 -24 -24 -24 -24 -24 -24 -25 -25 -25 -25 -25 -25 -26 -26 -26 -26 -27 -27 -27 -27 -27 -28 -28 -28 -27 -27
Height
5703 5705 5707 5708 5710 5711 5712 5713 5713 5713 5713 5712 5711 5711 5710 5707 5707 5704 5700 5696 5694 5691 5688 5685 5681 5678 5674 5670 5666 5663 5659 5656 5653 5650 5648 5646 5645 5643 5642 5640 5638 5635 5631 5626
5696 5699 5701 5703 5705 5707 5707 5708 5709 5709 5709 5708 5707 5706 5705 5703 5701 5698 5695 5692 5689 5687 5685 5682 5678 5675 5672 5668 5664 5661 5658 5654 5650 5647 5644 5641 5639 5637 5634 5631 5627 5623 5618 5613
5689 5693 5694 5697 5701 5701 5702 5703 5704 5705 5704 5703 5702 5701 5700 5697 5696 5694 5691 5689 5686 5684 5681 5678 5674 5671 5668 5664 5661 5657 5654 5650 5647 5643 5639 5635 5632 5628 5625 5621 5616 5611 5605 5599
5681 5685 5686 5695 5695 5696 5698 5698 5699 5700 5699 5698 5697 5696 5695 5692 5691 5689 5687 5685 5682 5680 5678 5675 5671 5668 5664 5661 5657 5652 5649 5645 5642 5638 5634 5630 5625 5620 5614 5608 5603 5597 5591 5583
5673 5678 5684 5687 5690 5690 5690 5694 5695 5695 5695 5694 5693 5692 5690 5688 5687 5685 5683 5681 5679 5676 5673 5670 5667 5664 5660 5656 5651 5647 5643 5639 5635 5631 5627 5622 5617 5612 5606 5599 5591 5582 5573 5566
5665 5670 5675 5683 5684 5684 5685 5687 5689 5690 5690 5689 5688 5687 5686 5684 5683 5681 5679 5678 5674 5671 5668 5665 5662 5659 5655 5650 5645 5641 5637 5633 5629 5623 5618 5612 5607 5601 5594 5587 5578 5569 5558 5547
5659 5663 5669 5676 5677 5678 5680 5686 5683 5684 5685 5684 5683 5683 5681 5680 5678 5677 5675 5673 5671 5668 5665 5661 5658 5654 5650 5646 5642 5637 5632 5627 5622 5616 5610 5604 5596 5588 5580 5572 5563 5553 5543 5529
5650 5654 5664 5668 5670 5674 5675 5675 5677 5679 5679 5679 5678 5677 5676 5675 5673 5671 5670 5668 5666 5663 5660 5657 5653 5648 5644 5640 5635 5630 5625 5620 5614 5608 5601 5594 5586 5576 5566 5556 5545 5533 5520 5506
5646 5652 5656 5658 5661 5664 5666 5669 5671 5672 5673 5673 5673 5672 5671 5670 5668 5666 5665 5662 5660 5657 5654 5651 5647 5642 5638 5634 5628 5622 5616 5610 5604 5598 5591 5583 5574 5565 5554 5542 5529 5515 5501 5488
5636 5643 5646 5649 5653 5658 5659 5660 5663 5665 5666 5666 5666 5666 5665 5664 5663 5661 5660 5657 5654 5652 5648 5644 5640 5636 5631 5626 5620 5615 5609 5602 5596 5589 5581 5572 5561 5550 5538 5525 5512 5498 5484 5477
5626 5633 5636 5641 5645 5647 5650 5652 5655 5657 5658 5659 5659 5659 5659 5657 5657 5656 5654 5651 5649 5645 5642 5638 5634 5629 5624 5619 5614 5608 5601 5594 5587 5579 5571 5562 5550 5537 5525 5509 5495 5483 5473 5468
5617 5626 5625 5630 5633 5637 5642 5645 5647 5649 5650 5651 5652 5652 5651 5651 5650 5650 5647 5645 5642 5639 5636 5632 5628 5622 5617 5612 5605 5599 5592 5585 5578 5570 5561 5551 5541 5530 5514 5499 5483 5470 5463 5458
5605 5612 5616 5620 5624 5630 5635 5638 5640 5641 5642 5644 5644 5645 5644 5643 5643 5642 5640 5638 5635 5633 5630 5626 5621 5616 5611 5605 5598 5591 5585 5578 5570 5561 5552 5541 5530 5519 5509 5496 5476 5465 5458 5453
5596 5602 5607 5612 5618 5621 5624 5627 5630 5633 5635 5636 5637 5637 5635 5635 5635 5634 5633 5631 5629 5626 5623 5619 5614 5609 5603 5597 5591 5584 5577 5569 5561 5552 5542 5531 5520 5508 5495 5483 5473 5464 5455 5447
5583 5590 5596 5601 5605 5610 5615 5618 5622 5624 5626 5628 5628 5628 5627 5627 5628 5628 5625 5624 5621 5618 5615 5610 5606 5601 5595 5589 5583 5575 5568 5560 5552 5543 5533 5522 5511 5498 5485 5473 5461 5454 5450 5444
5571 5580 5586 5591 5595 5600 5605 5609 5613 5615 5617 5618 5620 5620 5618 5619 5620 5619 5618 5616 5613 5610 5605 5601 5597 5592 5587 5580 5574 5567 5560 5551 5543 5534 5524 5514 5503 5491 5478 5466 5454 5447 5442 5436
5558 5566 5574 5581 5585 5589 5594 5598 5601 5604 5607 5610 5611 5611 5611 5611 5610 5609 5609 5606 5604 5600 5596 5592 5587 5582 5577 5571 5565 5558 5551 5543 5535 5527 5517 5507 5495 5483 5470 5458 5448 5442 5436 5429
5548 5554 5561 5568 5574 5578 5581 5586 5590 5594 5597 5598 5600 5601 5602 5601 5599 5601 5599 5597 5594 5591 5587 5582 5578 5573 5568 5563 5557 5550 5543 5536 5528 5519 5510 5500 5488 5476 5464 5452 5442 5437 5432 5425
5538 5543 5550 5557 5563 5568 5572 5574 5578 5581 5585 5587 5589 5591 5590 5590 5591 5591 5589 5587 5585 5582 5578 5573 5569 5564 5559 5554 5548 5542 5535 5528 5520 5511 5502 5492 5481 5469 5457 5446 5437 5432 5426 5420
5529 5533 5538 5543 5549 5555 5560 5564 5568 5571 5574 5576 5577 5578 5578 5579 5581 5581 5578 5577 5575 5572 5568 5564 5559 5555 5550 5545 5539 5533 5526 5520 5512 5503 5495 5485 5475 5463 5452 5440 5432 5427 5422 5416
5519 5522 5526 5531 5536 5542 5548 5553 5557 5561 5564 5565 5566 5566 5567 5569 5570 5569 5567 5566 5563 5561 5558 5555 5550 5545 5541 5535 5529 5524 5518 5511 5504 5495 5487 5478 5469 5458 5447 5436 5428 5423 5418 5412
5506 5512 5516 5520 5525 5531 5537 5542 5546 5549 5552 5554 5555 5556 5558 5560 5559 5558 5557 5555 5553 5551 5548 5545 5540 5536 5531 5526 5520 5515 5509 5502 5495 5488 5480 5471 5462 5452 5442 5431 5424 5419 5413 5408
5493 5499 5504 5509 5516 5520 5525 5529 5533 5537 5539 5541 5543 5546 5549 5549 5548 5548 5547 5546 5545 5542 5538 5534 5530 5526 5521 5516 5511 5506 5500 5494 5487 5480 5473 5464 5455 5446 5436 5427 5419 5415 5410 5405
5483 5489 5495 5499 5504 5509 5514 5518 5522 5526 5528 5529 5532 5536 5537 5537 5538 5538 5536 5535 5534 5531 5528 5524 5519 5515 5511 5506 5501 5496 5491 5485 5479 5472 5465 5457 5448 5439 5430 5422 5415 5411 5406 5401
5473 5479 5485 5490 5494 5499 5503 5507 5510 5514 5517 5519 5522 5524 5525 5526 5526 5526 5525 5524 5522 5520 5517 5512 5508 5504 5500 5496 5492 5487 5482 5476 5470 5464 5457 5449 5441 5433 5424 5416 5411 5407 5403 5399
5463 5469 5476 5480 5484 5488 5492 5496 5500 5504 5507 5509 5511 5512 5513 5514 5514 5514 5513 5512 5511 5508 5505 5501 5497 5493 5489 5485 5481 5476 5472 5467 5460 5454 5448 5440 5433 5426 5418 5411 5406 5403 5399 5396
5454 5459 5465 5470 5475 5479 5483 5488 5491 5494 5497 5499 5500 5502 5502 5503 5503 5503 5502 5501 5499 5496 5492 5489 5486 5482 5479 5475 5470 5466 5462 5456 5451 5445 5438 5432 5425 5419 5412 5406 5402 5399 5396 5393
Wind_Speed
24 22 21 19 17 16 14 14 12 12 11 13 16 15 15 17 15 15 14 15 16 16 18 18 19 19 20 20 20 20 21 21 21 19 19 20 21 23 27 32 39 45 50 56
27 25 25 22 19 16 15 14 12 12 10 13 14 15 15 18 16 16 16 17 18 19 20 20 20 21 21 21 21 21 20 20 22 22 23 23 24 25 28 32 36 41 48 53
30 27 28 25 16 18 17 15 15 11 13 13 15 15 15 18 17 17 17 18 19 21 21 21 22 22 23 23 23 21 21 22 22 24 26 28 28 30 31 34 37 40 45 51
34 31 32 20 20 20 19 18 15 11 12 13 14 15 14 18 17 17 18 18 20 21 21 21 22 23 24 24 24 24 24 24 25 26 29 31 33 35 38 41 43 44 48 54
38 33 27 24 20 22 22 18 15 14 12 12 14 15 15 16 17 18 18 19 21 22 23 23 23 23 24 26 27 27 27 28 29 31 32 35 37 39 42 45 50 54 58 60
42 36 30 22 21 23 22 19 18 16 13 14 14 14 15 15 16 18 19 20 22 23 24 24 25 26 27 28 31 32 31 31 32 35 38 40 42 45 48 51 55 58 63 65
43 39 32 25 25 25 24 19 20 19 16 15 16 14 14 14 16 17 18 20 21 23 24 25 25 26 28 29 31 32 33 34 35 38 41 44 48 51 54 58 62 65 67 70
46 43 33 29 29 27 25 25 23 20 17 17 16 15 15 15 16 17 19 20 21 23 24 25 26 27 29 31 33 34 35 36 37 41 44 48 52 56 60 63 67 71 73 72
42 39 36 34 32 30 30 27 24 22 21 20 18 18 17 17 17 18 19 21 23 24 25 26 28 29 30 32 34 37 38 40 41 44 48 52 56 59 62 66 71 74 74 60
43 40 39 38 36 31 30 29 26 25 23 21 20 20 20 20 20 20 21 23 24 26 27 28 30 31 32 34 36 38 40 42 44 46 50 55 59 62 66 69 73 73 60 43
47 43 41 39 36 35 34 31 28 27 25 23 22 21 22 22 23 22 22 25 26 28 29 30 32 34 35 37 39 40 43 44 46 49 52 56 60 64 67 71 73 64 49 37
47 40 44 41 41 40 37 34 31 29 27 25 23 24 23 24 24 24 25 27 28 30 31 32 35 37 39 40 41 42 45 47 48 51 53 57 60 63 66 70 64 52 44 40
49 44 46 44 43 39 36 34 32 31 29 27 26 25 25 27 25 24 27 28 29 31 33 34 37 39 41 42 43 44 46 48 49 52 54 58 61 65 66 67 56 44 40 40
48 45 45 44 40 39 37 35 35 34 31 29 27 26 28 29 26 26 29 30 31 32 33 35 37 40 43 44 44 45 47 49 50 52 55 60 63 65 67 69 56 35 36 40
53 48 46 44 45 42 38 36 36 35 33 31 30 28 30 31 28 28 31 31 31 33 35 36 38 41 44 45 46 46 47 50 51 52 55 60 63 65 67 67 53 36 33 35
55 51 48 46 45 43 41 40 38 36 35 34 31 31 34 33 32 32 33 31 33 34 36 38 40 42 44 46 47 47 48 50 52 53 55 59 62 63 67 64 49 36 34 33
53 55 52 47 46 44 43 40 39 37 38 36 34 34 34 35 36 35 35 34 36 37 38 40 41 43 45 47 48 48 49 50 52 54 57 60 61 62 66 61 47 34 35 33
54 52 50 46 45 46 45 42 41 41 40 38 36 34 35 37 39 36 36 37 38 40 41 41 42 44 45 47 48 48 49 50 52 53 56 59 61 62 65 58 44 33 34 31
51 51 51 49 46 46 45 44 42 40 40 37 38 36 39 40 38 36 38 39 39 42 42 42 44 45 46 48 49 48 49 50 51 54 57 58 60 61 64 55 42 33 34 31
44 46 45 48 50 52 52 50 45 40 40 39 39 40 41 41 37 37 40 40 41 42 43 45 45 46 47 48 48 48 49 50 51 53 56 58 59 60 62 52 39 32 32 32
39 42 46 46 46 47 49 51 50 46 42 40 41 43 44 40 38 40 41 41 41 42 45 46 46 46 46 47 48 48 48 49 50 53 55 57 58 59 61 50 37 32 31 31
43 41 44 47 46 44 44 44 44 42 38 39 41 44 42 41 41 41 42 42 42 44 46 46 45 45 46 47 47 47 48 48 50 53 54 56 56 58 59 49 35 31 30 31
45 44 43 44 43 43 41 40 40 43 44 44 43 42 39 40 40 41 42 43 44 45 46 45 44 45 45 47 47 46 47 48 50 52 53 55 55 57 58 47 34 30 28 29
43 43 42 42 43 43 41 40 40 41 42 43 41 38 39 40 41 41 43 44 44 46 45 44 44 45 46 46 46 46 46 47 49 50 52 53 54 56 56 46 32 28 27 27
42 43 41 40 40 41 41 40 41 42 41 39 38 39 40 40 42 43 42 42 44 45 43 44 45 45 46 46 45 45 46 47 49 49 51 52 53 55 54 44 31 26 26 23
39 42 44 42 40 40 41 41 41 39 39 39 38 40 42 42 43 43 43 44 44 42 43 44 45 46 46 45 44 45 47 48 49 50 50 51 52 54 51 41 28 24 23 20
35 38 41 43 43 40 39 39 39 39 39 40 41 41 41 42 42 43 44 43 42 43 43 44 45 46 45 44 45 46 47 48 49 49 50 51 52 53 47 36 25 21 19 17
Wind_Direction
231 228 231 234 238 246 255 262 270 271 275 277 279 289 294 298 304 310 320 324 325 332 332 329 332 335 337 338 343 345 346 343 340 334 326 316 307 300 291 284 278 275 273 272
230 227 233 236 240 248 256 265 269 273 280 276 279 285 288 294 307 314 323 327 331 334 331 328 330 332 330 329 329 329 328 331 332 329 325 320 315 310 305 300 294 289 284 280
227 227 232 235 237 246 252 264 265 275 274 279 279 283 288 292 305 311 320 324 325 327 325 327 328 328 327 327 325 323 321 325 329 330 328 324 320 317 313 306 302 300 296 290
225 226 232 233 237 247 249 253 262 271 280 289 287 288 291 291 305 308 316 320 322 322 321 325 325 323 323 323 324 325 323 321 323 324 324 323 321 319 315 314 310 305 303 299
226 227 233 231 239 248 252 254 262 267 275 283 287 292 294 301 307 308 312 316 317 318 320 324 323 322 321 323 327 326 323 321 321 322 322 321 320 318 317 314 312 310 306 302
224 227 231 231 245 254 258 256 263 262 267 277 285 291 298 303 305 309 313 315 316 318 319 320 320 321 324 327 327 325 321 318 318 319 320 321 319 318 316 314 313 311 308 305
228 231 233 235 239 249 259 270 260 263 268 274 281 291 294 300 307 311 313 314 314 316 316 315 315 318 323 324 323 321 319 317 317 317 318 319 318 318 317 316 315 313 311 310
229 232 233 236 241 247 254 258 261 262 263 268 278 284 287 296 304 309 313 312 312 316 316 315 315 318 320 322 323 322 321 319 318 319 320 320 320 319 319 319 318 318 318 316
233 233 235 237 242 241 248 256 260 259 262 267 276 282 289 292 298 305 310 311 313 316 317 318 318 317 316 319 322 324 324 322 321 321 322 322 321 321 322 322 322 323 322 319
230 232 235 238 241 240 245 252 254 256 259 265 272 279 286 291 295 303 308 309 313 315 318 322 322 319 317 319 321 323 323 323 322 322 323 324 324 325 326 325 327 328 322 323
230 230 234 237 238 238 238 244 250 254 256 260 268 275 279 285 292 299 303 307 311 316 319 323 324 323 321 319 319 322 324 323 323 324 325 326 328 329 329 331 332 328 321 322
231 228 233 232 235 236 238 241 245 251 254 257 262 268 272 277 286 294 299 304 311 314 319 320 323 324 324 321 320 322 324 323 323 324 326 328 330 331 332 335 332 323 320 320
230 229 232 235 236 237 239 243 246 247 249 253 257 263 268 273 283 290 294 301 306 310 315 318 319 321 324 323 321 321 322 322 323 325 328 330 332 332 333 338 332 318 317 320
232 232 233 236 238 239 239 241 246 249 252 253 254 260 266 273 282 286 290 295 301 306 311 314 316 317 320 323 320 319 321 323 324 326 330 332 332 332 335 339 335 320 317 321
229 229 231 235 235 239 241 244 249 252 252 253 254 257 263 269 276 279 284 292 298 305 309 312 315 316 318 320 320 320 321 322 324 327 331 332 331 333 337 340 334 324 319 320
233 230 230 233 237 238 241 244 248 250 249 249 249 253 260 267 273 276 284 290 295 303 307 311 313 314 316 319 321 319 320 322 325 328 331 331 331 334 338 341 334 323 323 320
233 233 232 232 237 240 240 242 245 249 251 252 251 251 256 263 270 277 285 288 293 299 305 309 311 314 315 318 320 319 320 323 325 328 330 329 332 336 339 341 334 325 326 322
231 233 233 231 233 237 241 242 244 247 253 255 254 255 257 261 268 277 283 286 291 298 303 307 310 312 314 317 319 319 320 323 324 327 328 330 333 337 340 340 334 325 327 324
233 233 234 235 232 232 238 241 244 246 249 251 257 258 256 260 269 278 281 284 290 296 302 306 309 311 313 316 318 318 319 322 325 326 328 330 333 337 341 340 333 326 326 324
231 236 236 236 236 235 236 240 241 243 249 254 256 256 257 260 271 276 278 283 289 296 302 306 308 309 311 315 317 317 319 321 324 326 327 330 333 337 341 339 332 325 326 325
224 229 234 235 236 239 241 242 244 248 249 251 253 256 258 264 270 271 277 284 289 295 299 303 305 307 311 315 316 316 318 321 323 325 327 329 333 336 340 338 331 324 325 327
222 226 231 235 237 238 241 245 247 241 240 243 247 253 259 265 268 272 278 284 288 291 296 301 303 306 311 314 315 315 317 320 322 324 326 328 332 335 339 337 330 325 325 328
223 224 229 235 238 240 241 242 241 242 245 247 251 255 259 263 266 272 276 281 286 290 296 301 303 307 311 312 313 313 315 319 320 323 325 327 331 334 338 336 329 324 324 330
223 224 227 231 235 236 237 237 238 242 245 246 249 254 258 261 264 269 275 282 286 292 298 300 303 307 309 310 311 311 314 316 318 321 323 326 330 333 336 334 327 323 324 331
227 225 227 230 233 235 237 238 239 242 247 250 252 254 256 260 267 273 278 283 289 295 298 300 303 306 306 308 308 309 312 314 317 319 322 325 329 331 333 331 323 319 322 329
225 223 225 228 232 233 235 236 237 240 244 246 249 253 259 265 270 275 279 286 291 294 296 298 301 303 304 306 306 308 311 312 316 319 322 324 327 329 330 327 318 315 320 326
224 223 223 224 230 236 238 238 239 241 244 248 252 258 262 266 271 277 282 286 289 292 295 297 299 301 302 303 305 306 308 311 315 318 320 322 324 326 325 322 311 308 315 320